EW9060 Weather Reports


time (UTC)temp
F
wind
direction
speed
knots
gust
knots
rain 1hr
in
rain 24hr
in
rain mn
in
humidity
%
barometer
mb
20260504044531 60 159 2.6 7.0 0.00 0.00 0.00 66 1013.8
20260504043026 60 238 1.7 7.8 0.00 0.00 0.00 66 1013.6
20260504041523 61 164 1.7 7.0 0.00 0.00 0.00 65 1013.5
20260504040022 61 109 2.6 7.0 0.00 0.00 0.00 65 1013.3
20260504034521 62 154 0.9 7.8 0.00 0.00 0.00 64 1013.1
20260504033020 62 251 2.6 7.0 0.00 0.00 0.00 64 1012.8
20260504031520 63 351 1.7 8.7 0.00 0.00 0.00 64 1012.7
20260504030020 64 221 2.6 8.7 0.00 0.00 0.00 63 1012.6
20260504024519 64 209 2.6 9.6 0.00 0.00 0.00 61 1012.4
20260504023018 65 228 4.3 10.4 0.00 0.00 0.00 60 1012.3
20260504021517 66 180 4.3 10.4 0.00 0.00 0.00 58 1012.2
20260504020017 67 19 4.3 9.6 0.00 0.00 0.00 56 1012.2
20260504014524 68 289 4.3 10.4 0.00 0.00 0.00 53 1012.1
20260504013016 69 173 2.6 10.4 0.00 0.00 0.00 53 1012.0
20260504011514 69 281 1.7 8.7 0.00 0.00 0.00 52 1012.0
20260504010117 69 17 2.6 9.6 0.00 0.00 0.00 52 1011.8
20260504004514 70 178 3.5 10.4 0.00 0.00 0.00 51 1011.9
20260504003013 71 178 3.5 10.4 0.00 0.00 0.00 50 1011.8
20260504001511 70 115 2.6 7.0 0.00 0.00 0.00 50 1012.0
20260504000022 69 236 5.2 9.6 0.00 0.00 0.00 51 1012.1
20260503234511 69 155 4.3 10.4 0.00 0.00 0.00 52 1012.2
20260503233008 69 237 1.7 9.6 0.00 0.00 0.00 53 1012.3
20260503231506 69 244 3.5 8.7 0.00 0.00 0.00 53 1012.4
20260503230007 69 311 2.6 9.6 0.00 0.00 0.00 53 1012.3
20260503224506 69 203 4.3 8.7 0.00 0.00 0.00 52 1012.1
20260503223006 69 184 3.5 10.4 0.00 0.00 0.00 52 1012.1
20260503221504 69 188 5.2 10.4 0.00 0.00 0.00 53 1012.1
20260503220002 68 193 2.6 12.2 0.00 0.00 0.00 55 1012.2
20260503214506 68 163 3.5 12.2 0.00 0.00 0.00 55 1012.3
20260503213002 68 196 4.3 9.6 0.00 0.00 0.00 54 1012.4
20260503211502 68 167 4.3 10.4 0.00 0.00 0.00 54 1012.6
20260503204609 69 185 4.3 13.9 0.00 0.00 0.00 52 1012.6
20260503203106 68 170 2.6 13.0 0.00 0.00 0.00 54 1012.8
20260503201554 67 166 4.3 10.4 0.00 0.00 0.00 54 1012.7
20260503200053 66 115 3.5 11.3 0.00 0.00 0.00 56 1012.8
20260503194607 66 172 5.2 12.2 0.00 0.00 0.00 55 1012.8
20260503193048 66 236 4.3 13.9 0.00 0.00 0.00 55 1012.8
20260503191547 65 217 5.2 13.9 0.00 0.00 0.00 57 1012.9
20260503190057 65 218 4.3 13.9 0.00 0.00 0.00 56 1013.1
20260503184544 65 220 3.5 10.4 0.00 0.00 0.00 58 1012.9
20260503183050 64 166 3.5 14.8 0.00 0.00 0.00 59 1012.9
20260503181538 64 261 3.5 9.6 0.00 0.00 0.00 62 1012.9
20260503180035 63 178 5.2 8.7 0.00 0.00 0.00 64 1013.1
20260503174531 62 118 3.5 10.4 0.00 0.00 0.00 65 1013.2
20260503173044 61 116 4.3 12.2 0.00 0.00 0.00 67 1013.1
20260503171527 61 234 3.5 11.3 0.00 0.00 0.00 67 1012.9
20260503081537 55 144 1.7 7.0 0.00 0.00 0.00 77 1011.1
20260503071532 56 165 3.5 7.0 0.00 0.00 0.00 76 1011.4